Погода в Твердыше

Россия / Курганская область     55°44′43″N   64°29′45″E
темп.,
°C
ветер,
м/с
пор.,
м/с
влажн.,
%
обл.,
%
осадки,
мм/ч
давл.,
гПа
погр.,
м
19 сентября, вс
вс1923:00+2з412805 0.1 1007358
02:00+1з412845 0.0 1007488
05:00+1з5118984 0.0 1008543
08:00+2зсз5990100 0.1 1008751
11:00+5зсз6974100 0.3 10091215
14:00+6зсз6962100 0.2 10101527
17:00+6зсз61059100 0.2 10121245
20:00+5зсз71160100 0.0 1013887
20 сентября, пн
пн2023:00+4зсз71262100 0.0 1013863
02:00+2зсз51174100 0.0 1015611
05:00+1зсз5107763 0.0 1017648
08:00+2зсз51078100 0.0 1019474
11:00+4сз5768100 0.0 1021880
14:00+5ссз5762100 0.1 10221266
17:00+6ссз4763100 0.2 10241156
20:00+4ссз377699 0.1 1025573
21 сентября, вт
вт2123:00+2сз388990 0.1 1026302
02:00+1ссз38965 0.0 1028233
05:00−1сз249836 0.0 102896
08:00+1сз358964 0.0 1029247
11:00+5сз346473 0.0 1028988
14:00+8сз344742 0.0 10271182
17:00+8сз344723 0.0 10261224
20:00+3з116676 0.0 102610
22 сентября, ср
ср2223:00+3юз2266100 0.0 102526
02:00+2зюз23695 0.0 102555
05:00+1з23745 0.0 102456
08:00+3зсз257271 0.0 1024154
11:00+8сз3454100 0.0 1024746
14:00+10с3447100 0.0 10241240
17:00+9с355396 0.0 10241185
20:00+6ссв3782100 0.0 1026332
23 сентября, чт
чт2323:00+4ссв2393100 0.0 102780
02:00+4с239096 0.0 102894
05:00+4ссз2486100 0.0 1029174
08:00+5ссв2484100 0.0 1030273
11:00+8св236363 0.1 10311069
14:00+8св3354100 0.1 10321338
17:00+8св22525 0.1 10321059
20:00+4сз00685 0.0 103310